Location: Newark
(44.1906°N, 75.9681°W)
Time: 01:08:53
(UTC+00:00)

Envisat - Pass Details

Date: 01 February 2020
Orbit: 764 x 766 km, 98.1° (Epoch: 27 February)

Event Time Altitude Azimuth Distance (km) Brightness Sun altitude
Rises 23:07:46 0° 176° (S) 3,219 6.4 -10.1°
Reaches altitude 10° 23:10:05 10° 180° (S) 2,297 5.6 -10.5°
Maximum altitude 23:15:05 59° 259° (W) 886 3.7 -11.4°
Drops below altitude 10° 23:20:07 10° 339° (NNW) 2,313 5.6 -12.2°
Sets 23:22:28 0° 344° (NNW) 3,243 6.3 -12.7°
